STARLINK-32320, 61638

Orbit data source: Space-Track

STARLINK-32320, 61638 is a payload satellite owned by SpaceX/Seattle (US) in LEO that was launched on Wed, 23 Oct 2024 UTC via an FALCON 9 launch vehicle from the Air Force Eastern Test Range (AFETR). Payload-class satellites include a variety of spacecraft equipped with specific instruments for various scientific and technological missions. These include communications satellites like Starlink; space stations such as the ISS; scientific satellites like the Hubble; Earth observation satellites from companies like Planet Labs, Umbra, and HawkEye 360; GPS; miniature CubeSats for education and research; and military/defense satellites.

Loading next visibility...
Identifier
61638, 2024-191T
Orbit
LEO
Last TLE update
1 day ago
Origin
Manufacturer
SpaceX/Seattle
Mission
Operational Commercial Communications
Bus & Motor
STARLINK V2M, Unknown motor
Mass
730 kg wet, ~700 kg dry
Launch date (UTC)
2024-10-23 (8 months ago)
Launch vehicle
FALCON 9
Launch site
Air Force Eastern Test Range (AFETR)
Object type
Payload
Rocket body
Debris
Shape & HBR
Box + 2 Pan, 29 m
Radar Cross Section
36.964 m², Large (>1 m²)

Expand to show TLE details & history

TLE from 1 day ago
0 STARLINK-32320
1 61638U 24191T   25170.39287383 -.00000321  00000-0 -21490-5 0  9998
2 61638  42.9989 205.3505 0001251 275.8517  84.2192 15.27584207 37222
Epoch: 2025-06-19T09:25Z
TLE epoch observation values (Epoch: 2025-06-19T09:25:44.298Z)
Latitude
-0.00004°
Longitude
156.05468°
Altitude
482.725 km
Speed
7.626 km/s
True Right ascension
13h 41m 24s
True Declination
0° 00' 00"
Sunlit
Object was in full shadow at epoch
Visualization orbit readout
Latitude
-41.00021°
Longitude
38.23966°
Altitude
494.744 km
Speed
7.618 km/s
Apparent Right ascension
07h 21m 49s
Apparent Declination
-42° 47' 18"
Sunlit
Object is in daylight
Visualization observer readout
Local Sidereal Time
20:59:22
Azimuth
106.911° ESE
Elevation
-71.535°
Doppler factor
1
Orbital elements
Apogee altitude
485.84 km
Perigee altitude
484.123 km
Semi-major axis
6,863.119 km
Eccentricity
0.00013
Inclination
42.9989°
RAAN
205.3505°
Arg. of periapsis
275.8517°
True anomaly
Unknown
Mean anomaly
84.2192°
Eccentric anomaly
Unknown
Mean motion
3.81734 °/min
Orbital period
94.31 mins
BSTAR
-0.000002149
Loading maneuver chart data...
Loading SW <> Apogee altitude chart data...
Loading historical data...
Loading historical data...
Loading historical data...
Loading historical data...
Loading historical data...
Loading historical data...
Loading historical data...

STARLINK-32320 Visibility forecast

Observer location: undefined°, undefined°

Span
Click to sort rows by Start time (UTC) header in descending order
Start Az.
Max El. time (UTC)
Max El. Az.
Max El.
End time (UTC)
End Az.
6 mins2025-06-20 11:00:21.606Z278.403° WNW2025-06-20 11:03:21.606Z216.966° SW34.701°2025-06-20 11:06:21.606Z139.027° SSE
5 mins2025-06-21 05:36:21.606Z228.589° WSW2025-06-21 05:38:21.606Z179.683° S39.44°2025-06-21 05:41:21.606Z79.851° E
5 mins2025-06-21 07:15:21.606Z279.467° WNW2025-06-21 07:17:21.606Z329.539° NNW38.983°2025-06-21 07:20:21.606Z67.945° E
6 mins2025-06-21 08:54:21.606Z293.225° NW2025-06-21 08:57:21.606Z49.133° ENE39.371°2025-06-21 09:00:21.606Z91.572° ESE
|